Content
SEND FEEDBACK

Daily
Averages
Monthly
Summary
United States of America

PENNINGTON GAP, VIRGINIA


Home > North America > United States > Virginia
Elevation: 1442 feet     Latitude: 36 45N     Longitude: 083 03W

WEATHER
 
SELECT A DAY
Number of Records: 114,204;   Date Range: 9/21/10 - 9/29/14
 
SHARE

PRINT THIS DATA

[ ← Previous Day ]
WEATHER ALMANAC - JANUARY 31, 2013
[ Next Day → ]
[ °C ]   °F
Weather ElementAverageHighLow
Temperature34.3 °F37.4 °F (12:35 am)32 °F (2:35 am)
Dewpoint22.2 °F33.8 °F (1:15 am)17.6 °F (7:35 am)
Humidity62.2 %93 % (1:15 am)45 % (2:35 pm)
Barometer29.93 in30.00 in (11:15 am)29.65 in (12:35 am)
Wind Speed11.3 mph23 mph (3:35 am)
Wind Gust28.8 mph (1:55 am)
Weather ElementAverage
Visibility9.6 mi
Wind DirectionWSW (256.3 °)

Weather ElementTotal
Precipitation0.09 in
Heating Degree Days30.3 (Base 65)
Averaged from 70 records on January 31, 2013
WEATHER CONDITIONS BREAKOUT
WIND DIRECTION BREAKOUT
WEATHER BY HOUR - JANUARY 31, 2013
[ °C ]   °F
Local TimeTemperatureDewpointHumidityBarometerVisibilityWind DirectionWind SpeedGust SpeedPrecipitationEventsConditions
12:35 AM37.4 °F32.0 °F81 %29.65 in10.0 miWest (270°)13.8 mph27.6 mphOvercast
12:55 AM37.4 °F32.0 °F81 %29.68 in7.0 miWest (270°)12.7 mph21.9 mphRainLight Rain
1:15 AM35.6 °F33.8 °F93 %29.70 in4.0 miWest (270°)9.2 mphRainLight Rain
1:35 AM35.6 °F30.2 °F81 %29.71 in10.0 miWest (270°)13.8 mph25.3 mphOvercast
1:55 AM33.8 °F30.2 °F87 %29.74 in5.0 miWest (270°)18.4 mph28.8 mph0.02 inRainLight Rain
2:15 AM33.8 °F28.4 °F81 %29.76 in10.0 miWest (280°)10.4 mph20.7 mphOvercast
2:35 AM32.0 °F26.6 °F80 %29.77 in5.0 miWest (280°)17.3 mph25.3 mph0.03 inRainLight Rain
2:55 AM32.0 °F24.8 °F75 %29.78 in10.0 miWest (260°)17.3 mph23.0 mph0.04 inOvercast
3:15 AM32.0 °F23.0 °F69 %29.80 in10.0 miWest (270°)13.8 mph24.2 mphOvercast
3:35 AM32.0 °F23.0 °F69 %29.81 in10.0 miWest (280°)23.0 mph27.6 mphRainLight Rain
3:55 AM32.0 °F23.0 °F69 %29.82 in9.0 miWest (260°)16.1 mph21.9 mphRainLight Rain
4:15 AM32.0 °F23.0 °F69 %29.83 in9.0 miWest (280°)11.5 mph17.3 mphRainLight Rain
4:35 AM32.0 °F23.0 °F69 %29.83 in10.0 miWest (260°)11.5 mph19.6 mphRainLight Rain
4:55 AM32.0 °F23.0 °F69 %29.85 in10.0 miWest (270°)16.1 mph23.0 mphRainLight Rain
5:15 AM32.0 °F24.8 °F75 %29.86 in10.0 miWest (280°)10.4 mph18.4 mphRainLight Rain
5:35 AM32.0 °F23.0 °F69 %29.86 in10.0 miWest (270°)12.7 mph17.3 mphRainLight Rain
5:55 AM32.0 °F24.8 °F75 %29.86 in10.0 miWSW (250°)8.1 mphRainLight Rain
6:15 AM32.0 °F24.8 °F75 %29.86 in10.0 miWest (270°)4.6 mphOvercast
6:35 AM32.0 °F23.0 °F69 %29.87 in10.0 miWSW (250°)11.5 mph16.1 mphRainLight Rain
7:15 AM32.0 °F19.4 °F60 %29.89 in10.0 miWSW (250°)15.0 mph20.7 mphOvercast
7:35 AM32.0 °F17.6 °F55 %29.90 in10.0 miWest (270°)11.5 mph17.3 mphOvercast
7:55 AM32.0 °F17.6 °F55 %29.91 in10.0 miWest (270°)10.4 mph18.4 mphOvercast
8:15 AM32.0 °F17.6 °F55 %29.92 in10.0 miWest (260°)8.1 mph19.6 mphOvercast
8:35 AM32.0 °F19.4 °F60 %29.93 in10.0 miWest (260°)12.7 mph16.1 mphOvercast
8:55 AM32.0 °F19.4 °F60 %29.95 in10.0 miWest (280°)8.1 mphOvercast
9:15 AM32.0 °F19.4 °F60 %29.96 in7.0 miWest (280°)9.2 mphSnowLight Snow
9:35 AM32.0 °F21.2 °F64 %29.97 in10.0 miWest (270°)8.1 mphSnowLight Snow
9:55 AM32.0 °F23.0 °F69 %29.98 in10.0 miWest (260°)9.2 mphMostly Cloudy
10:15 AM32.0 °F19.4 °F60 %29.98 in10.0 miWest (270°)11.5 mph25.3 mphMostly Cloudy
10:35 AM32.0 °F19.4 °F60 %29.99 in10.0 miWest (270°)9.2 mph16.1 mphOvercast
10:55 AM32.0 °F17.6 °F55 %29.99 in10.0 miWNW (290°)15.0 mph23.0 mphOvercast
11:15 AM32.0 °F17.6 °F55 %30.00 in10.0 miWest (260°)12.7 mph24.2 mphOvercast
11:35 AM32.0 °F19.4 °F60 %30.00 in10.0 miWSW (240°)9.2 mph20.7 mphOvercast
11:55 AM32.0 °F21.2 °F64 %30.00 in9.0 miWSW (250°)10.4 mph24.2 mphScattered Clouds
12:15 PM32.0 °F23.0 °F69 %29.99 in10.0 miWSW (240°)17.3 mph21.9 mphScattered Clouds
12:35 PM32.0 °F23.0 °F69 %30.00 in9.0 miWest (260°)13.8 mph19.6 mphRainLight Rain
12:55 PM32.0 °F23.0 °F69 %29.99 in10.0 miWSW (250°)15.0 mph21.9 mphRainLight Rain
1:15 PM33.8 °F23.0 °F65 %29.99 in10.0 miWest (270°)13.8 mphRainLight Rain
1:35 PM33.8 °F19.4 °F56 %30.00 in10.0 miWest (270°)13.8 mph24.2 mphRainLight Rain
1:55 PM35.6 °F19.4 °F52 %30.00 in10.0 miWSW (250°)13.8 mph21.9 mphMostly Cloudy
2:15 PM35.6 °F17.6 °F48 %29.99 in10.0 miWSW (250°)15.0 mph21.9 mphMostly Cloudy
2:35 PM37.4 °F17.6 °F45 %29.99 in10.0 miWest (270°)12.7 mph19.6 mphMostly Cloudy
2:55 PM37.4 °F17.6 °F45 %29.98 in10.0 miWSW (240°)12.7 mph23.0 mphMostly Cloudy
3:15 PM37.4 °F17.6 °F45 %29.99 in10.0 miWest (260°)15.0 mph21.9 mphMostly Cloudy
3:35 PM37.4 °F17.6 °F45 %29.98 in10.0 miSW (230°)17.3 mph23.0 mphMostly Cloudy
3:55 PM37.4 °F17.6 °F45 %29.99 in10.0 miWest (260°)15.0 mphMostly Cloudy
4:15 PM37.4 °F17.6 °F45 %29.99 in10.0 miWSW (240°)12.7 mphMostly Cloudy
4:35 PM37.4 °F17.6 °F45 %29.99 in10.0 miWSW (250°)8.1 mphOvercast
4:55 PM37.4 °F19.4 °F48 %29.98 in10.0 miWSW (240°)11.5 mphOvercast
5:15 PM37.4 °F19.4 °F48 %29.99 in10.0 miWSW (250°)8.1 mph17.3 mphOvercast
5:35 PM37.4 °F19.4 °F48 %29.99 in10.0 miWSW (250°)6.9 mphOvercast
5:55 PM37.4 °F19.4 °F48 %29.98 in10.0 miWest (260°)10.4 mphOvercast
6:15 PM37.4 °F19.4 °F48 %29.99 in10.0 miWSW (240°)9.2 mphOvercast
6:35 PM37.4 °F21.2 °F52 %29.98 in10.0 miWSW (240°)9.2 mphOvercast
6:55 PM35.6 °F21.2 °F56 %29.99 in10.0 miWSW (250°)6.9 mphMostly Cloudy
7:15 PM35.6 °F21.2 °F56 %29.99 in10.0 miWSW (240°)6.9 mphOvercast
7:35 PM35.6 °F23.0 °F60 %29.99 in10.0 miWSW (240°)5.8 mphOvercast
7:55 PM35.6 °F23.0 °F60 %29.99 in10.0 miSW (220°)4.6 mphOvercast
8:15 PM33.8 °F23.0 °F65 %29.99 in10.0 miSW (230°)4.6 mphOvercast
8:35 PM33.8 °F23.0 °F65 %29.99 in10.0 miWSW (240°)4.6 mphOvercast
8:55 PM33.8 °F24.8 °F70 %29.99 in10.0 miSW (230°)5.8 mphOvercast
9:15 PM33.8 °F23.0 °F65 %29.98 in10.0 miWSW (240°)5.8 mphOvercast
9:35 PM33.8 °F23.0 °F65 %29.98 in10.0 miWSW (250°)6.9 mphOvercast
9:55 PM35.6 °F23.0 °F60 %29.97 in10.0 miWSW (240°)11.5 mphOvercast
10:15 PM35.6 °F24.8 °F65 %29.97 in10.0 miWSW (240°)8.1 mphOvercast
10:35 PM35.6 °F24.8 °F65 %29.96 in10.0 miWSW (240°)10.4 mphOvercast
10:55 PM37.4 °F24.8 °F60 %29.95 in10.0 miWSW (240°)10.4 mphOvercast
11:15 PM37.4 °F24.8 °F60 %29.95 in10.0 miWSW (240°)10.4 mphOvercast
11:35 PM37.4 °F24.8 °F60 %29.94 in10.0 miWSW (250°)11.5 mph17.3 mphOvercast
11:55 PM37.4 °F24.8 °F60 %29.94 in10.0 miWSW (240°)11.5 mph19.6 mphOvercast
Hourly data recorded from K0VG, located miles away from Pennington Gap, Virginia







STORIES FROM OUR PARTNERS